FENGYUN 1C DEB, 30523

Orbit data source: Space-Track

FENGYUN 1C DEB, 30523 is space debris in SSO originally from a launch on Mon, 10 May 1999 UTC launched from the Taiyaun Space Center, China (TSC). Fengyun 1C debris stems from the Chinese weather satellite Fengyun-1C, which was intentionally destroyed by a Chinese anti-satellite missile in 2007. This event dramatically increased the amount of space debris, with thousands of trackable fragments posing hazards to satellites and human spaceflight. The Fengyun 1C debris cloud has become a focal point in discussions about space sustainability and the need for international regulations to prevent the creation of new debris.

Loading next visibility...
Identifier
30523, 1999-025AJM
Orbit
SSO
Country
Flag of CNCN / PRC
Related business
Manufacturer
Unknown
Mission
Spacecraft
Bus & Motor
Unknown
Mass
Unknown
Launch date (UTC)
1999-05-10 (27 years ago)
Launch vehicle
Unknown
Launch site
Taiyaun Space Center, China (TSC)
Object type
Payload
Rocket body
Debris
Shape & HBR
Unknown shape, 0.1 m
Radar Cross Section
Medium (>0.1 m² and <1 m²)

Expand to show TLE details & history
Last TLE update: 7 hours ago

TLE from 7 hours ago
0 FENGYUN 1C DEB
1 30523U 99025AJM 26254.60743843  .00000579  00000-0  18354-3 0  9997
2 30523  98.4969 230.5097 0242568  26.0164  28.8972 14.28332045 19954
Epoch: 2026-09-11T14:34Z
TLE epoch observation values (Epoch: 2026-09-11T14:34:42.680Z)
Latitude
55.46487°
Longitude
8.73474°
Altitude
655.103 km
Speed
7.615 km/s
True Right ascension
14h 32m 09s
True Declination
55° 18' 06"
Sunlit
Object was in daylight at epoch
Visualization orbit readout
Latitude
Unknown
Longitude
Unknown
Altitude
Unknown
Speed
Unknown
Apparent Right ascension
Unknown
Apparent Declination
Unknown
Sunlit
N/A
Visualization observer readout
Local Sidereal Time
13:33:11
Azimuth
Unknown
Elevation
Unknown
Doppler factor
Unknown
Orbital elements
Apogee altitude
968.43 km
Perigee altitude
620.462 km
Semi-major axis
7,172.583 km
Eccentricity
0.02426
Inclination
98.4969°
RAAN
230.5097°
Arg. of periapsis
26.0164°
True anomaly
30.27688°
Mean anomaly
28.8972°
Eccentric anomaly
29.58333°
Mean motion
3.57297 °/min
Orbital period
100.76 mins
BSTAR
0.00018354
Loading maneuver chart data...
Computing Atmospheric mass density...
Loading historical data...
Loading historical data...
Loading historical data...
Loading historical data...
Loading historical data...
Loading historical data...
Loading historical data...

Documentation

Showing up to 5 results
|